Weather History for Hatteras, NC

Change the Weather History Date:

Monday, October 15, 2012

  Actual Average Record
Temperature  
Mean Temperature 70 °F 66 °F  
Max Temperature 77 °F 72 °F 84 °F (1919)
Min Temperature 62 °F 60 °F 38 °F (1988)
Degree Days  
Heating Degree Days 0 2  
Month to date heating degree days 8 19  
Since 1 July heating degree days 8 22  
Cooling Degree Days 5 3  
Month to date cooling degree days 89 66  
Year to date cooling degree days 2045 1658  
Growing Degree Days 18 (Base 50)    
Moisture  
Dew Point 66 °F    
Average Humidity 85    
Maximum Humidity 100    
Minimum Humidity 69    
Precipitation  
Precipitation 0.36 in 0.17 in 2.41 in (1995)
Month to date precipitation 1.06 2.64  
Year to date precipitation 41.79 46.08  
Snow  
Snow 0.00 in - - ()
Month to date snowfall 0.0  
Since 1 July snowfall 0.0  
Snow Depth 0.00 in    
Sea Level Pressure  
Sea Level Pressure 29.87 in    
Wind  
Wind Speed 5 mph (SW)    
Max Wind Speed 17 mph    
Max Gust Speed 30 mph    
Visibility 8 miles    
Events Rain    
T = Trace of Precipitation, MM = Missing Value Source: NWS Daily Summary

Daily Weather History Graph

Daily Weather History Graph

Search for Another Location

Airport:

Trip Planner

Search our weather history database for the weather conditions in past years. The results will help you decide how hot, cold, wet, or windy it might be!

Date:

Astronomy

Oct. 15, 2012 Rise Set
Actual Time 7:09 AM EDT 6:26 PM EDT
Civil Twilight 6:43 AM EDT 6:52 PM EDT
Nautical Twilight 6:13 AM EDT 7:21 PM EDT
Astronomical Twilight 5:44 AM EDT 7:51 PM EDT
Moon 7:14 AM EDT (10/15) 6:27 PM EDT (10/15)
Length of Visible Light 12h 08m
Length of Day
11h 17m
New Moon, 0% of the Moon is Illuminated
Oct 15
New Moon
Oct 21
First Quarter
Oct 29
Full
Nov 6
Last Quarter
Nov 13
New

Hourly Weather History & Observations

Time (EDT) Temp. Dew Point Humidity Pressure Visibility Wind Dir Wind Speed Gust Speed Precip Events Conditions
12:51 AM 62.1 °F 60.1 °F 93% 30.06 in 10.0 mi Calm Calm - N/A   Clear
1:51 AM 64.9 °F 62.1 °F 90% 30.03 in 10.0 mi Calm Calm - N/A   Mostly Cloudy
2:51 AM 66.0 °F 64.0 °F 93% 30.01 in 10.0 mi Calm Calm - N/A   Mostly Cloudy
3:30 AM 69.8 °F 66.2 °F 88% 29.99 in 4.0 mi SE 6.9 mph - 0.01 in Rain Light Rain
3:38 AM 69.8 °F 66.2 °F 88% 29.99 in 4.0 mi ESE 3.5 mph - 0.03 in Rain Light Rain
3:51 AM 69.1 °F 66.0 °F 90% 29.99 in 10.0 mi Calm Calm - 0.03 in   Overcast
4:51 AM 66.9 °F 64.9 °F 93% 29.97 in 10.0 mi East 3.5 mph - N/A   Scattered Clouds
5:51 AM 66.9 °F 64.9 °F 93% 29.96 in 7.0 mi Calm Calm - N/A   Mostly Cloudy
6:51 AM 66.9 °F 66.0 °F 97% 29.94 in 5.0 mi Calm Calm - N/A   Mostly Cloudy
7:51 AM 70.0 °F 68.0 °F 93% 29.95 in 6.0 mi Calm Calm - 0.00 in   Mostly Cloudy
8:16 AM 71.6 °F 69.8 °F 94% 29.94 in 8.0 mi Calm Calm - N/A   Overcast
8:51 AM 73.0 °F 71.1 °F 93% 29.94 in 7.0 mi Calm Calm - 0.01 in   Overcast
9:17 AM 73.4 °F 69.8 °F 88% 29.94 in 8.0 mi Calm Calm - 0.01 in   Scattered Clouds
9:51 AM 73.9 °F 70.0 °F 87% 29.94 in 9.0 mi Calm Calm - 0.01 in   Partly Cloudy
10:51 AM 75.0 °F 68.0 °F 79% 29.93 in 10.0 mi Calm Calm - N/A   Clear
11:51 AM 73.9 °F 66.9 °F 79% 29.91 in 10.0 mi South 3.5 mph - N/A   Overcast
12:51 PM 75.0 °F 66.9 °F 76% 29.88 in 10.0 mi SW 4.6 mph - N/A   Overcast
1:51 PM 75.9 °F 66.9 °F 74% 29.84 in 10.0 mi SW 4.6 mph - N/A   Scattered Clouds
2:51 PM 75.9 °F 68.0 °F 76% 29.82 in 10.0 mi SSW 6.9 mph - N/A   Clear
3:51 PM 75.9 °F 66.9 °F 74% 29.78 in 10.0 mi SSW 5.8 mph - N/A   Clear
4:51 PM 75.0 °F 64.9 °F 71% 29.76 in 10.0 mi SSW 8.1 mph - N/A   Clear
5:51 PM 73.9 °F 64.9 °F 73% 29.76 in 9.0 mi WSW 6.9 mph - N/A   Clear
6:51 PM 73.9 °F 66.9 °F 79% 29.74 in 10.0 mi SW 10.4 mph - N/A   Clear
7:51 PM 73.9 °F 68.0 °F 82% 29.73 in 10.0 mi SW 10.4 mph - N/A   Clear
8:51 PM 73.9 °F 69.1 °F 85% 29.73 in 10.0 mi WSW 12.7 mph - N/A   Clear
9:51 PM 73.9 °F 66.0 °F 76% 29.75 in 10.0 mi WSW 13.8 mph 21.9 mph N/A   Clear
10:51 PM 64.9 °F 60.1 °F 84% 29.76 in 4.0 mi WNW 11.5 mph 29.9 mph 0.01 in Rain Light Rain
11:02 PM 64.4 °F 62.6 °F 94% 29.76 in 1.8 mi WNW 6.9 mph 21.9 mph 0.06 in Rain Heavy Rain
11:16 PM 64.4 °F 62.6 °F 94% 29.75 in 1.2 mi WNW 5.8 mph - 0.25 in Rain Rain
11:20 PM 64.4 °F 62.6 °F 94% 29.74 in 2.0 mi Variable 3.5 mph - 0.27 in Rain Rain
11:27 PM 64.4 °F 62.6 °F 94% 29.73 in 5.0 mi West 3.5 mph - 0.28 in Rain Rain
11:51 PM 64.9 °F 63.0 °F 93% 29.73 in 10.0 mi NW 5.8 mph - 0.30 in Rain Light Rain